• In Hungary
  • List of Countries
  • For 7 days
  • Water Temperature
  • Satellite Maps
  • Weather Map
  • News
  • Weather Widgets
  • user-avatar
    Login

    Hourly Weather Ploskaya Dubrava

    Today, 20 October, Saturday

    Time Temperature Precipitation Wind Pressure Humidity
    00:00 +11°C° 0 mm 3 mps 749 mmHg 71%
    01:00 +11°C° 0 mm 3 mps 749 mmHg 75%
    02:00 +12°C° 0 mm 2 mps 749 mmHg 78%
    03:00 +10°C° 0 mm 2 mps 749 mmHg 84%
    04:00 +10°C° 0 mm 2 mps 749 mmHg 87%
    05:00 +10°C° 0 mm 2 mps 749 mmHg 89%
    06:00 +10°C° 0 mm 2 mps 750 mmHg 92%
    07:00 +10°C° 0 mm 2 mps 750 mmHg 90%
    08:00 +11°C° 0 mm 3 mps 750 mmHg 88%
    09:00 +11°C° 0 mm 3 mps 750 mmHg 86%
    10:00 +12°C° 0 mm 3 mps 751 mmHg 78%
    11:00 +13°C° 0 mm 3 mps 751 mmHg 70%
    12:00 +13°C° 0 mm 3 mps 751 mmHg 63%
    13:00 +13°C° 0 mm 3 mps 751 mmHg 59%
    14:00 +13°C° 0 mm 3 mps 751 mmHg 55%
    15:00 +13°C° 0 mm 3 mps 751 mmHg 52%
    16:00 +12°C° 0 mm 3 mps 752 mmHg 55%
    17:00 +12°C° 0 mm 2 mps 752 mmHg 59%
    18:00 +9°C° 0 mm 2 mps 752 mmHg 63%
    19:00 +9°C° 0 mm 2 mps 752 mmHg 65%
    20:00 +8°C° 0 mm 2 mps 752 mmHg 67%
    21:00 +8°C° 0 mm 2 mps 753 mmHg 70%
    22:00 +7°C° 0 mm 2 mps 753 mmHg 72%
    23:00 +7°C° 0 mm 2 mps 753 mmHg 75%

    Tomorrow, 21 October, Sunday

    Time Temperature Precipitation Wind Pressure Humidity
    00:00 +6°C° 0 mm 2 mps 753 mmHg 78%
    01:00 +6°C° 0 mm 2 mps 753 mmHg 80%
    02:00 +5°C° 0 mm 2 mps 754 mmHg 83%
    03:00 +5°C° 0 mm 2 mps 754 mmHg 85%
    04:00 +5°C° 0 mm 2 mps 754 mmHg 87%
    05:00 +4°C° 0 mm 2 mps 754 mmHg 89%
    06:00 +4°C° 0 mm 2 mps 754 mmHg 90%
    07:00 +5°C° 0 mm 2 mps 755 mmHg 87%
    08:00 +5°C° 0 mm 3 mps 755 mmHg 84%
    09:00 +5°C° 0 mm 3 mps 755 mmHg 80%
    10:00 +7°C° 0 mm 3 mps 755 mmHg 74%
    11:00 +9°C° 0 mm 3 mps 756 mmHg 69%
    12:00 +10°C° 0 mm 3 mps 756 mmHg 63%
    13:00 +10°C° 0 mm 3 mps 756 mmHg 62%
    14:00 +10°C° 0 mm 3 mps 756 mmHg 61%
    15:00 +10°C° 0 mm 3 mps 756 mmHg 60%
    16:00 +10°C° 0 mm 3 mps 756 mmHg 64%
    17:00 +9°C° 0 mm 3 mps 756 mmHg 68%
    18:00 +8°C° 0 mm 2 mps 756 mmHg 71%
    19:00 +8°C° 0 mm 2 mps 756 mmHg 73%
    20:00 +7°C° 0 mm 2 mps 757 mmHg 74%
    21:00 +7°C° 0 mm 2 mps 757 mmHg 76%
    22:00 +6°C° 0 mm 2 mps 757 mmHg 78%
    23:00 +6°C° 0 mm 2 mps 757 mmHg 80%

    Day after tomorrow, 22 October, Monday

    Time Temperature Precipitation Wind Pressure Humidity
    00:00 +6°C° 0 mm 2 mps 757 mmHg 81%
    01:00 +5°C° 0 mm 2 mps 757 mmHg 83%
    02:00 +5°C° 0 mm 2 mps 757 mmHg 84%
    03:00 +5°C° 0 mm 2 mps 757 mmHg 85%
    04:00 +4°C° 0 mm 2 mps 757 mmHg 86%
    05:00 +4°C° 0 mm 2 mps 757 mmHg 87%
    06:00 +4°C° 0 mm 2 mps 757 mmHg 88%
    07:00 +4°C° 0 mm 3 mps 757 mmHg 83%
    08:00 +5°C° 0 mm 3 mps 757 mmHg 79%
    09:00 +5°C° 0 mm 3 mps 758 mmHg 74%
    10:00 +8°C° 0 mm 3 mps 757 mmHg 69%
    11:00 +9°C° 0 mm 3 mps 757 mmHg 64%
    12:00 +11°C° 0 mm 3 mps 757 mmHg 59%
    13:00 +11°C° 0 mm 3 mps 757 mmHg 59%
    14:00 +11°C° 0 mm 3 mps 756 mmHg 60%
    15:00 +12°C° 0 mm 3 mps 756 mmHg 60%
    16:00 +12°C° 0 mm 2 mps 756 mmHg 64%
    17:00 +10°C° 0 mm 2 mps 755 mmHg 67%
    18:00 +9°C° 0 mm 2 mps 755 mmHg 71%
    19:00 +9°C° 0 mm 3 mps 755 mmHg 72%
    20:00 +9°C° 0 mm 3 mps 755 mmHg 73%
    21:00 +8°C° 0 mm 3 mps 754 mmHg 74%
    22:00 +8°C° 0 mm 3 mps 754 mmHg 73%
    23:00 +8°C° 0 mm 3 mps 754 mmHg 71%

    23 October, Tuesday

    Time Temperature Precipitation Wind Pressure Humidity
    00:00 +7°C° 0 mm 4 mps 753 mmHg 70%
    01:00 +7°C° 0 mm 4 mps 753 mmHg 69%
    02:00 +7°C° 0 mm 4 mps 752 mmHg 69%
    03:00 +7°C° 0 mm 4 mps 752 mmHg 68%
    04:00 +7°C° 0.1 mm 4 mps 751 mmHg 70%
    05:00 +7°C° 0.1 mm 5 mps 750 mmHg 71%
    06:00 +7°C° 0.1 mm 5 mps 749 mmHg 73%
    07:00 +8°C° 0.2 mm 5 mps 749 mmHg 75%
    08:00 +8°C° 0.2 mm 6 mps 748 mmHg 77%
    09:00 +8°C° 0.2 mm 6 mps 747 mmHg 79%
    10:00 +9°C° 0 mm 6 mps 747 mmHg 77%
    11:00 +10°C° 0 mm 6 mps 746 mmHg 75%
    12:00 +11°C° 0 mm 7 mps 746 mmHg 74%
    13:00 +11°C° 0 mm 6 mps 745 mmHg 76%
    14:00 +11°C° 0 mm 6 mps 745 mmHg 78%
    15:00 +11°C° 0 mm 6 mps 744 mmHg 80%
    16:00 +12°C° 0.1 mm 5 mps 744 mmHg 81%
    17:00 +12°C° 0.1 mm 5 mps 744 mmHg 82%
    18:00 +10°C° 0.1 mm 5 mps 744 mmHg 84%
    19:00 +11°C° 0 mm 4 mps 744 mmHg 84%
    20:00 +10°C° 0 mm 4 mps 744 mmHg 83%
    21:00 +10°C° 0 mm 4 mps 744 mmHg 83%
    22:00 +8°C° 0 mm 4 mps 744 mmHg 84%
    23:00 +9°C° 0 mm 3 mps 744 mmHg 85%

    24 October, Wednesday

    Time Temperature Precipitation Wind Pressure Humidity
    00:00 +8°C° 0 mm 3 mps 743 mmHg 86%
    01:00 +8°C° 0 mm 3 mps 743 mmHg 87%
    02:00 +7°C° 0 mm 3 mps 743 mmHg 88%
    03:00 +5°C° 0 mm 3 mps 742 mmHg 89%
    04:00 +5°C° 0 mm 3 mps 742 mmHg 88%
    05:00 +5°C° 0 mm 3 mps 742 mmHg 87%
    06:00 +5°C° 0 mm 3 mps 742 mmHg 86%
    07:00 +5°C° 0 mm 4 mps 741 mmHg 82%
    08:00 +6°C° 0 mm 4 mps 741 mmHg 78%
    09:00 +6°C° 0 mm 5 mps 741 mmHg 74%
    10:00 +7°C° 0 mm 5 mps 741 mmHg 68%
    11:00 +8°C° 0 mm 6 mps 740 mmHg 63%
    12:00 +10°C° 0 mm 6 mps 740 mmHg 57%
    13:00 +10°C° 0 mm 6 mps 740 mmHg 55%
    14:00 +10°C° 0 mm 6 mps 739 mmHg 53%
    15:00 +11°C° 0 mm 6 mps 739 mmHg 51%
    16:00 +10°C° 0 mm 5 mps 739 mmHg 53%
    17:00 +9°C° 0 mm 5 mps 738 mmHg 56%
    18:00 +10°C° 0 mm 4 mps 738 mmHg 58%
    19:00 +9°C° 0 mm 5 mps 737 mmHg 60%
    20:00 +9°C° 0 mm 5 mps 737 mmHg 62%
    21:00 +9°C° 0 mm 6 mps 737 mmHg 64%
    22:00 +9°C° 0 mm 6 mps 736 mmHg 67%
    23:00 +9°C° 0 mm 6 mps 735 mmHg 70%

    25 October, Thursday

    Time Temperature Precipitation Wind Pressure Humidity
    00:00 +9°C° 0 mm 6 mps 735 mmHg 73%
    01:00 +9°C° 0.7 mm 6 mps 734 mmHg 79%
    02:00 +9°C° 0.7 mm 6 mps 734 mmHg 85%
    03:00 +10°C° 0.7 mm 6 mps 733 mmHg 90%
    04:00 +10°C° 1.2 mm 5 mps 732 mmHg 91%
    05:00 +10°C° 1.2 mm 5 mps 731 mmHg 92%
    06:00 +10°C° 1.2 mm 4 mps 731 mmHg 93%
    07:00 +10°C° 1.3 mm 4 mps 731 mmHg 93%
    08:00 +10°C° 1.3 mm 4 mps 730 mmHg 94%
    09:00 +10°C° 1.3 mm 3 mps 730 mmHg 94%
    10:00 +10°C° 0.7 mm 3 mps 731 mmHg 92%
    11:00 +10°C° 0.7 mm 3 mps 731 mmHg 89%
    12:00 +10°C° 0.7 mm 3 mps 731 mmHg 87%
    13:00 +10°C° 0.1 mm 3 mps 732 mmHg 84%
    14:00 +10°C° 0.1 mm 3 mps 732 mmHg 81%
    15:00 +11°C° 0.1 mm 3 mps 732 mmHg 78%
    16:00 +10°C° 0.3 mm 3 mps 732 mmHg 81%
    17:00 +9°C° 0.3 mm 3 mps 733 mmHg 84%
    18:00 +9°C° 0.3 mm 2 mps 733 mmHg 87%
    19:00 +8°C° 0.5 mm 2 mps 733 mmHg 86%
    20:00 +8°C° 0.5 mm 3 mps 733 mmHg 84%
    21:00 +8°C° 0.5 mm 3 mps 733 mmHg 83%
    22:00 +7°C° 0.1 mm 3 mps 734 mmHg 82%
    23:00 +7°C° 0.1 mm 3 mps 734 mmHg 82%
    Show more